Location: Cheyres
(46.8153°N, 6.7877°E)
Time: 01:02:53
(UTC+00:00)

Tiros 1 - Pass Details

Date: 28 May 2022
Orbit: 629 x 663 km, 48.4° (Epoch: 05 July)

Event Time Altitude Azimuth Distance (km) Brightness Sun altitude
Exits shadow 22:52:47 18° 98° (E) 1,552 8.9 -21.1°
Drops below altitude 10° 22:54:18 10° 85° (E) 2,015 9.6 -21.1°
Sets 22:56:52 0° 74° (ENE) 2,931 10.6 -21.2°
